TimeCST,TemperatureF,Dew PointF,Humidity,Sea Level PressureIn,VisibilityMPH,Wind Direction,Wind SpeedMPH,Gust SpeedMPH,PrecipitationIn,Events,Conditions,WindDirDegrees,DateUTC
12:54 AM,42.1,28.0,58,30.11,10.0,East,5.8,-,N/A,,Scattered Clouds,90,2013-02-10 06:54:00
1:54 AM,42.1,28.0,58,30.09,10.0,ESE,5.8,-,N/A,,Clear,110,2013-02-10 07:54:00
2:54 AM,42.1,28.0,58,30.09,10.0,East,5.8,-,N/A,,Mostly Cloudy,100,2013-02-10 08:54:00
3:54 AM,44.1,28.0,53,30.08,10.0,SE,6.9,-,N/A,,Overcast,140,2013-02-10 09:54:00
4:54 AM,42.1,35.1,76,30.06,9.0,ESE,5.8,-,0.03,Rain,Light Rain,110,2013-02-10 10:54:00
5:54 AM,43.0,37.0,80,30.04,10.0,ESE,8.1,-,0.02,,Overcast,120,2013-02-10 11:54:00
6:54 AM,46.9,37.0,68,30.02,10.0,SE,8.1,-,N/A,,Overcast,140,2013-02-10 12:54:00
7:54 AM,46.9,37.9,71,30.04,10.0,SSE,4.6,-,0.00,,Overcast,150,2013-02-10 13:54:00
8:54 AM,48.0,37.9,68,29.99,10.0,SE,10.4,-,0.00,,Overcast,130,2013-02-10 14:54:00
9:54 AM,50.0,37.9,63,29.96,10.0,SE,9.2,-,N/A,,Overcast,130,2013-02-10 15:54:00
10:54 AM,52.0,37.0,57,29.89,10.0,SE,13.8,20.7,N/A,,Clear,140,2013-02-10 16:54:00
11:26 AM,51.8,37.4,58,29.93,9.0,South,10.4,-,0.00,Rain-Thunderstorm,Light Rain,190,2013-02-10 17:26:00
11:54 AM,48.9,41.0,74,29.94,3.0,South,9.2,-,0.10,Rain-Thunderstorm,Heavy Thunderstorms and Rain,180,2013-02-10 17:54:00
12:08 PM,48.2,42.8,82,29.93,2.5,South,8.1,-,0.07,Rain,Heavy Rain,180,2013-02-10 18:08:00
12:27 PM,48.2,42.8,82,29.90,4.0,SE,10.4,-,0.16,Rain,Rain,140,2013-02-10 18:27:00
12:54 PM,48.0,44.1,86,29.86,5.0,Variable,6.9,-,0.23,Rain,Rain,0,2013-02-10 18:54:00
1:26 PM,50.0,44.6,82,29.81,10.0,SSE,13.8,23.0,0.00,,Mostly Cloudy,160,2013-02-10 19:26:00
1:50 PM,51.8,46.4,82,29.80,10.0,SSE,15.0,24.2,0.00,,Scattered Clouds,160,2013-02-10 19:50:00
1:54 PM,51.1,46.0,83,29.81,10.0,South,13.8,24.2,0.00,,Scattered Clouds,180,2013-02-10 19:54:00
2:38 PM,51.8,46.4,82,29.76,10.0,SSE,18.4,32.2,N/A,,Overcast,150,2013-02-10 20:38:00
2:54 PM,52.0,46.9,83,29.77,10.0,SSE,15.0,25.3,N/A,,Overcast,160,2013-02-10 20:54:00
3:54 PM,53.1,46.9,80,29.77,10.0,South,15.0,25.3,N/A,,Overcast,170,2013-02-10 21:54:00
4:54 PM,53.1,46.9,80,29.76,10.0,South,15.0,24.2,N/A,,Overcast,170,2013-02-10 22:54:00
5:54 PM,53.1,46.9,80,29.78,10.0,South,13.8,20.7,N/A,,Overcast,180,2013-02-10 23:54:00
6:54 PM,54.0,46.9,77,29.79,10.0,South,13.8,21.9,N/A,,Overcast,190,2013-02-11 00:54:00
7:54 PM,54.0,48.0,80,29.78,10.0,South,12.7,23.0,N/A,,Overcast,180,2013-02-11 01:54:00
8:54 PM,53.1,48.0,83,29.79,10.0,South,8.1,-,N/A,,Overcast,170,2013-02-11 02:54:00
9:54 PM,54.0,48.9,83,29.80,10.0,SSW,9.2,-,N/A,,Overcast,200,2013-02-11 03:54:00
10:54 PM,54.0,48.9,83,29.80,10.0,SSW,10.4,-,N/A,,Overcast,200,2013-02-11 04:54:00
11:38 PM,53.6,48.2,82,29.81,10.0,SSW,9.2,-,N/A,,Scattered Clouds,210,2013-02-11 05:38:00
11:54 PM,52.0,48.0,86,29.82,10.0,SSW,10.4,-,N/A,,Clear,210,2013-02-11 05:54:00